EHI
42 42 42 36 24 19 19 15 6 2 3 2 0 0 0 1 2 4 11 19 16 7 2 0 0 1 3 5 6 5 7 10 9 7 5 4 2 0 0 1 2 2 1
45 45 43 35 25 18 14 11 6 3 3 3 1 0 0 0 1 3 6 8 7 4 1 0 0 1 2 3 4 6 7 8 9 8 6 4 2 1 1 2 3 2 2
43 45 42 34 27 18 11 9 7 6 5 5 3 2 1 1 1 1 1 2 1 1 0 0 1 1 1 2 4 6 8 8 9 9 7 4 3 2 2 2 2 2 1
36 39 37 31 25 18 12 10 9 8 7 7 5 3 3 1 0 0 1 2 2 2 3 2 2 2 1 2 5 8 10 11 11 10 8 6 3 2 2 1 1 1 0
27 28 27 23 20 19 16 12 10 9 8 7 5 4 2 1 0 0 1 2 3 4 6 4 2 1 1 3 6 9 12 14 14 13 11 8 3 1 1 1 0 0 0
16 15 14 14 15 19 18 15 11 9 8 7 4 2 1 0 0 0 0 1 1 3 4 3 2 2 2 3 5 9 12 16 18 17 14 10 5 2 1 1 0 0 0
8 6 5 7 11 15 16 14 10 8 6 5 2 0 0 0 0 0 0 0 0 0 1 1 1 3 4 3 4 6 9 13 17 18 15 12 8 5 3 1 0 0 0
5 4 4 6 9 13 13 11 9 7 3 2 1 0 0 0 0 0 0 0 0 0 0 0 1 2 4 4 3 3 4 6 10 13 13 12 10 7 4 2 1 1 1
4 4 5 6 8 11 11 10 9 6 3 1 0 0 0 0 0 0 0 0 0 0 0 0 0 1 2 3 3 2 1 1 3 6 7 8 8 5 3 2 3 2 2
2 3 3 4 6 8 9 9 7 5 3 1 0 0 0 0 0 0 0 0 0 0 0 0 0 0 0 1 2 1 0 0 1 2 3 5 7 5 3 3 4 4 4
0 1 1 2 3 4 4 5 5 5 4 3 2 1 0 0 0 0 0 0 0 0 0 0 0 0 0 0 0 0 0 0 0 0 0 2 5 6 5 5 5 5 5
0 0 1 1 1 1 1 2 3 5 6 6 5 2 1 1 1 1 1 0 0 0 0 0 0 0 0 0 0 0 0 0 0 0 1 1 3 5 6 6 5 5 6
0 0 0 0 0 0 0 1 1 2 5 6 5 6 6 6 6 4 3 1 0 0 0 0 0 0 0 0 0 0 0 0 0 0 1 1 1 3 5 4 4 4 5
0 0 0 0 0 0 0 0 0 1 2 3 4 7 11 13 14 12 8 4 2 0 0 0 0 0 0 0 0 0 0 0 0 0 1 1 0 1 2 2 2 2 2
0 0 0 0 0 0 0 0 0 0 0 1 3 6 10 15 18 18 14 8 5 2 0 0 0 0 0 0 0 0 0 0 0 0 0 0 0 0 0 0 0 0 0
0 0 0 0 0 0 0 0 0 0 0 1 2 3 5 9 14 17 16 11 7 4 2 2 2 1 0 0 0 0 0 0 0 0 0 0 0 0 0 0 0 0 0
0 0 0 0 0 0 0 0 0 0 0 1 1 1 2 3 7 12 13 11 8 7 6 7 7 4 1 0 0 0 0 0 0 0 0 0 0 0 0 0 0 0 0
0 0 0 0 0 0 0 0 0 0 0 0 0 0 0 0 2 6 9 9 9 9 10 12 11 7 2 0 0 0 0 0 0 0 0 0 0 0 0 0 0 0 0
0 0 0 0 0 0 0 0 0 0 0 0 0 0 0 0 0 2 4 7 8 7 9 13 14 10 3 0 0 0 0 0 0 0 0 0 0 0 0 0 0 0 0
0 0 0 0 0 0 0 0 0 0 0 0 0 0 0 0 0 0 1 4 5 4 5 10 14 11 5 1 0 0 0 0 0 0 0 0 0 0 0 0 0 0 0
0 0 0 0 0 0 0 0 0 0 0 0 0 0 0 0 0 0 0 1 1 1 2 6 9 8 4 1 0 0 0 0 0 0 0 0 0 0 0 0 0 0 0
0 0 0 0 0 0 0 0 0 0 0 0 0 0 0 0 0 0 0 0 0 0 1 3 5 4 2 1 0 0 0 0 0 0 0 0 0 0 0 0 0 0 0
0 0 0 0 0 0 0 0 0 0 0 0 0 0 0 0 0 0 0 0 0 0 0 1 2 1 1 1 0 0 0 0 0 0 0 0 0 0 0 0 0 0 0
0 0 0 0 0 0 0 0 0 0 0 0 0 0 0 0 0 0 0 0 0 0 0 0 0 1 1 1 0 0 0 0 0 0 0 0 0 0 0 0 0 0 0
0 0 0 0 0 0 0 0 0 0 0 0 0 0 0 0 0 0 0 0 0 0 0 0 0 0 0 0 0 0 0 0 0 0 0 0 0 0 0 0 0 0 0
0 0 0 0 0 0 0 0 0 0 0 0 0 0 0 0 0 0 0 0 0 0 0 0 0 0 0 0 0 0 0 0 0 0 0 0 0 0 0 0 0 0 0
Wind_Speed
8 8 6 6 8 7 7 8 9 9 10 10 10 11 12 12 11 9 6 12 14 16 17 17 17 17 17 17 17 18 19 19 18 18 18 18 18 17 16 16 15 14 13
8 8 8 7 8 8 7 7 9 9 9 8 10 11 11 11 11 11 10 9 15 16 16 17 17 17 17 17 17 18 19 19 19 19 19 19 18 18 18 17 17 16 15
9 8 8 7 7 7 8 7 9 8 8 9 10 11 9 10 10 10 10 8 9 15 17 16 16 16 16 18 18 18 18 18 19 19 19 19 19 18 18 18 18 17 17
9 8 7 7 6 6 6 6 7 7 8 8 7 8 7 7 10 10 10 9 8 8 13 17 15 15 15 17 18 18 17 18 19 19 19 19 20 20 19 19 19 18 18
7 7 6 5 6 6 6 7 6 7 7 7 7 7 7 8 8 9 10 11 10 9 8 11 14 14 16 17 17 17 17 17 18 18 19 19 20 20 20 20 19 19 18
6 5 5 6 6 6 6 6 7 6 6 6 7 6 6 7 7 8 9 9 9 10 10 9 9 12 16 15 15 16 16 17 18 19 19 20 20 19 19 20 19 19 19
4 4 5 5 6 6 7 7 7 8 7 5 6 7 7 8 8 7 7 7 8 8 7 7 8 7 8 15 15 14 15 17 17 19 19 19 20 19 19 20 20 20 19
3 4 5 5 5 5 7 8 8 7 6 6 6 6 6 7 7 7 6 7 7 6 7 7 6 6 7 6 8 14 14 15 16 17 18 18 18 18 18 19 20 19 19
3 4 5 5 5 7 7 8 8 10 8 7 7 6 6 5 4 6 6 5 5 5 5 4 6 6 7 6 6 10 11 11 13 16 17 17 17 17 18 18 18 19 19
3 3 4 4 6 6 6 8 9 8 9 8 7 7 7 5 5 4 7 7 6 6 5 4 5 5 6 6 4 2 5 7 9 12 14 15 16 16 17 18 18 19 19
2 2 2 3 4 5 6 7 6 8 8 9 8 7 7 6 7 6 5 6 6 6 5 5 4 4 4 4 4 1 2 4 6 8 10 12 14 15 17 17 19 19 19
2 2 2 2 3 4 5 5 6 8 8 9 9 8 7 7 7 7 6 6 5 5 4 3 4 4 3 3 1 6 3 0 2 4 5 7 9 12 14 16 17 18 18
3 3 3 3 3 3 4 4 6 7 8 9 9 9 8 8 6 7 7 6 5 4 4 5 4 3 2 1 2 4 3 2 1 1 2 3 4 6 9 11 14 15 16
6 4 5 5 5 5 5 4 5 6 6 8 10 10 8 8 7 7 7 7 6 6 6 5 4 4 3 2 4 2 5 6 4 3 2 1 1 2 4 6 8 10 11
8 8 8 7 7 6 6 6 6 6 6 7 8 9 9 8 8 8 8 8 8 7 6 6 5 5 3 3 3 2 5 8 7 6 4 3 1 1 2 3 4 6 7
11 10 11 10 9 9 8 7 7 7 7 7 7 8 8 7 7 7 8 8 8 8 7 4 4 6 4 4 4 4 6 9 9 7 7 6 4 3 2 1 1 3 4
13 13 13 12 12 11 10 9 9 8 9 9 8 8 8 8 7 6 7 7 8 8 8 5 4 6 6 5 5 4 5 4 7 9 8 8 7 6 5 5 3 2 0
14 14 14 14 14 13 12 12 12 11 10 10 10 9 9 7 8 7 7 8 8 8 9 9 6 6 6 7 6 5 4 5 6 10 10 10 9 9 8 7 6 5 4
16 16 15 15 15 15 14 13 13 12 12 11 10 10 10 9 8 7 8 8 7 8 8 8 7 6 5 7 7 6 6 5 6 8 10 11 11 11 10 9 9 8 8
17 16 16 16 16 16 15 14 14 13 13 12 11 11 10 10 10 9 8 8 8 8 8 8 7 6 6 8 7 7 6 5 5 5 7 7 10 12 12 11 11 11 10
17 16 16 17 16 14 14 15 14 14 13 13 13 12 12 10 8 7 7 7 8 8 7 8 8 7 7 8 8 7 7 6 5 4 5 5 5 5 7 9 11 12 11
16 16 16 16 16 14 13 14 14 14 13 13 13 13 12 12 12 12 11 10 9 9 10 8 8 9 10 10 9 9 9 8 5 5 5 4 4 5 5 7 10 11 12
15 15 15 15 15 15 12 13 15 14 14 13 13 12 11 11 13 12 13 15 15 15 13 10 10 10 11 11 12 13 11 10 6 8 7 5 4 6 6 8 11 11 11
13 13 13 14 13 13 12 14 15 15 15 14 13 13 12 11 11 10 11 12 13 14 15 13 12 11 10 10 13 12 11 8 8 7 6 5 5 6 6 7 10 11 11
12 12 12 13 13 12 12 14 14 13 13 15 14 14 13 13 10 8 11 12 12 11 12 13 13 10 7 8 10 10 11 11 9 6 5 5 7 7 7 7 9 11 11
12 11 11 11 12 12 11 14 15 12 12 12 12 12 12 12 9 11 12 12 13 12 11 11 12 10 10 11 14 13 13 12 10 7 7 7 9 8 6 6 7 8 9
Wind_Direction
241 242 242 243 248 247 239 239 248 252 251 247 243 239 241 240 244 243 225 190 203 217 224 225 226 226 224 220 216 215 214 213 211 212 213 214 214 212 210 208 206 204 204
244 245 245 243 246 247 249 250 250 251 251 249 246 243 240 238 239 240 244 213 205 216 224 227 227 226 225 222 218 217 216 216 213 212 212 213 214 214 212 210 209 207 206
243 240 243 241 243 246 247 247 251 252 250 245 244 244 242 240 240 237 242 244 223 212 217 222 225 227 226 224 222 219 216 216 215 213 212 213 213 214 214 212 210 209 208
245 243 244 242 242 246 246 244 247 249 249 250 249 248 245 240 242 241 240 237 241 236 211 211 219 225 228 228 227 223 218 215 214 214 214 214 214 213 213 213 212 211 210
248 245 247 242 239 242 243 249 242 247 249 247 247 240 243 242 242 241 242 243 238 238 241 200 205 220 227 230 229 225 220 216 214 213 213 216 216 215 213 214 214 213 211
245 246 251 246 244 246 244 243 250 244 253 250 256 253 245 245 241 239 240 238 238 236 237 234 215 213 217 226 228 229 225 220 215 213 213 216 217 216 214 213 214 215 214
255 254 260 255 250 248 250 246 245 238 238 238 246 245 235 232 236 237 237 242 230 230 238 235 239 243 211 208 219 227 229 224 218 215 213 216 218 217 214 213 213 215 216
279 261 260 259 254 256 251 250 243 249 239 220 241 249 239 210 208 220 219 223 231 221 223 223 234 238 256 238 201 207 224 228 225 221 218 217 216 215 214 215 214 215 217
300 293 275 271 267 253 245 243 238 237 240 223 228 249 255 241 182 181 206 214 215 223 231 223 227 232 239 247 241 198 208 225 230 228 224 219 215 214 215 215 215 216 217
300 296 293 282 275 267 260 252 237 237 239 235 215 233 264 310 271 193 188 193 205 221 241 252 249 236 239 243 230 237 203 223 234 237 231 223 216 214 215 216 217 217 218
297 298 297 289 283 281 276 269 263 246 240 243 234 217 220 224 243 262 216 190 201 211 215 231 247 250 247 248 247 137 158 215 229 239 239 232 222 217 216 219 222 222 221
255 272 283 286 285 287 284 277 269 255 253 253 253 240 225 222 220 229 232 219 218 209 208 228 233 221 222 231 139 66 58 174 222 231 237 237 229 221 219 222 226 227 226
256 226 243 242 254 262 275 282 274 267 259 254 249 248 244 241 239 234 239 231 227 212 198 212 199 198 188 175 111 81 93 79 102 176 210 224 228 224 222 224 227 229 230
268 252 237 236 239 240 245 247 265 267 265 258 254 254 254 247 240 235 237 237 229 222 206 199 174 177 154 144 90 253 103 79 69 82 106 141 209 225 227 229 231 232 234
261 243 238 239 240 237 238 238 244 251 262 262 257 252 250 252 247 241 236 237 241 238 219 182 188 155 163 126 124 112 92 84 72 69 76 85 101 196 224 229 233 234 235
262 256 247 242 239 238 234 236 244 238 241 249 256 258 254 250 248 243 236 234 236 248 250 190 179 158 154 140 125 112 99 103 82 73 71 72 72 73 76 111 212 232 234
256 250 247 244 241 238 235 232 242 244 241 244 245 247 250 254 249 244 240 234 230 233 239 227 179 153 161 165 142 134 129 117 96 78 74 71 70 69 66 63 60 55 232
255 251 248 245 242 240 235 233 236 239 239 242 243 243 243 246 248 245 242 236 231 230 234 231 198 174 171 164 148 141 128 107 98 87 80 75 71 69 66 64 62 59 58
259 255 251 246 243 242 239 235 234 237 238 238 239 239 239 235 242 241 238 239 237 230 232 235 216 180 163 156 145 136 123 114 107 108 96 84 76 72 68 65 64 63 63
264 256 252 247 243 241 238 234 232 233 235 236 236 237 238 234 233 237 235 232 235 236 227 230 222 189 168 163 157 150 145 140 123 108 91 92 91 83 74 69 70 70 69
266 258 252 248 244 240 238 233 232 232 232 235 234 233 234 233 238 238 246 234 228 229 228 222 216 200 180 172 172 167 156 141 125 137 127 115 112 98 92 81 74 73 73
268 263 256 250 245 240 230 217 225 236 235 234 235 234 232 220 218 219 237 248 249 239 234 228 219 211 195 185 176 169 158 157 151 158 136 107 96 88 78 77 73 78 78
272 265 259 254 248 244 230 206 211 230 236 235 234 234 237 227 210 221 218 222 235 240 247 250 238 225 204 188 179 176 177 177 156 153 146 117 110 97 88 79 77 77 80
273 267 262 255 249 243 221 209 206 223 235 235 233 231 234 241 231 229 233 229 228 224 224 231 241 239 226 197 187 180 169 145 125 144 159 132 135 115 101 94 84 82 83
272 266 260 253 246 241 217 205 204 222 226 232 234 232 230 231 221 210 238 245 242 237 223 223 233 239 231 192 178 163 158 153 147 154 172 139 141 128 118 112 100 91 88
271 267 260 252 245 238 212 198 203 227 226 227 227 231 226 231 216 194 229 239 240 237 233 210 213 215 208 183 175 179 170 165 155 155 175 155 153 148 131 129 133 133 114